{"data":{"norad_id":49454,"intl_designator":"2021-104AY","name":"STARLINK-3160","alt_names":[],"object_type":"PAYLOAD","status":"ACTIVE","operator":null,"country":"US","launch_date":"2021-11-13","launch_site_code":"AFETR","launch_vehicle":null,"mission":null,"orbit_class":"UNKNOWN","rcs_meters":null,"size_class":null,"mass_kg":null,"dimensions":null,"purposes":["comms"],"wikipedia_slug":null,"has_3d_model":false,"image_url":null,"decayed_at":null,"tle_current":{"epoch":"2026-05-24T23:37:50.094912Z","epoch_age_seconds":72549,"freshness":"FRESH","line1":"1 49454U 21104AY  26144.98460758 -.00000219  00000+0  43399-5 0  9993","line2":"2 49454  53.2151 236.6173 0001139  86.0910 274.0213 15.08840128250295","mean_motion":15.08840128,"eccentricity":0.0001139,"inclination_deg":53.2151,"raan_deg":236.6173,"arg_perigee_deg":86.091,"mean_anomaly_deg":274.0213,"bstar":4.3399e-6,"rev_number":25029,"period_min":95.437546581476,"perigee_km":538.9550511876,"apogee_km":540.53094425108,"semimajor_km":6917.8799977193,"source":"CELESTRAK","updated_at":"2026-05-25T13:38:16.827939Z"}}}